Regional Weather Roundup
Issued by NWS

Home | Current Version | Previous Version | Text Only | Print | Product List | Glossary Off
Versions: 1 2 3 4 5 6 7 8 9 10 11 12 13 14 15 16 17 18 19 20 21 22 23 24 25 26 27 28 29 30 31 32 33 34 35 36 37 38 39 40 41 42 43 44 45 46 47 48 49 50

000
ASUS43 KMKX 131759
RWRWI

WISCONSIN REGIONAL WEATHER ROUNDUP
NATIONAL WEATHER SERVICE MILWAUKEE/SULLIVAN WI
1200 PM CST SAT FEB 13 2016

NOTE: "FAIR" INDICATES FEW OR NO CLOUDS BELOW 12,000 FEET WITH NO
SIGNIFICANT WEATHER AND/OR OBSTRUCTIONS TO VISIBILITY.

WIZ001-002-006>008-014>016-023>028-131900-
NORTHWEST WISCONSIN

CITY           SKY/WX    TMP DP  RH WIND       PRES   REMARKS
SUPERIOR ARPT  SUNNY      0 -15  50 SW7       30.60F WCI -13
ASHLAND        SUNNY      1 -11  57 S8        30.56F WCI -13
6HR MIN TEMP: -14; 6HR MAX TEMP:   1;

HAYWARD        SUNNY      1 -14  49 VRB3      30.53F
6HR MIN TEMP: -20; 6HR MAX TEMP:   2;

SIREN          SUNNY      1 -14  48 CALM      30.59F
CUMBERLAND     SUNNY      0 -15  50 CALM      30.56F
RICE LAKE      SUNNY     -1 -15  53 SW3       30.60F
CHETEK         SUNNY      1 -15  48 SW3       30.59F
LADYSMITH      SUNNY      1 -13  50 S5        30.56F WCI  -8
EAU CLAIRE     NOT AVBL
MENOMONIE      SUNNY     13 -11  34 CALM      30.62F
NEW RICHMOND   SUNNY      1 -14  50 CALM      30.60F
OSCEOLA        SUNNY      2 -11  53 CALM      30.64F
$$

WIZ003>005-009-010-017-018-131900-
NORTH CENTRAL WISCONSIN

CITY           SKY/WX    TMP DP  RH WIND       PRES   REMARKS
MANITOWISH WTR MOSUNNY    2  -6  66 NW5       30.44F WCI  -7
ARBOR VITAE    SUNNY      4  -6  63 NW6       30.44F WCI  -7
WOODRUFF       SUNNY      4  -6  63 NW6       30.44F WCI  -7
RHINELANDER    SUNNY      4  -7  60 VRB7      30.44F WCI  -8
6HR MIN TEMP: -13; 6HR MAX TEMP:   5;

EAGLE RIVER    PTSUNNY    4  -8  58 N10       30.43F WCI -11
LAND O LAKES   PTSUNNY    6  -4  62 NW9       30.42F WCI  -8
PHILLIPS       SUNNY     -1 -11  62 NW5       30.49F WCI -11
TOMAHAWK       SUNNY      2  -9  61 NW5       30.48F WCI  -8
MEDFORD        SUNNY      1 -12  55 W5        30.49F WCI  -9
MERRILL        SUNNY      3 -10  56 NW6       30.50F WCI  -8
$$

WIZ029-030-035-036-043>047-131900-
CENTRAL WISCONSIN

CITY           SKY/WX    TMP DP  RH WIND       PRES   REMARKS
WAUSAU         SUNNY      4  -9  55 NW7       30.50F WCI  -8
6HR MIN TEMP:  -9; 6HR MAX TEMP:   4;

MOSINEE        SUNNY      1  -9  60 NW9       30.52F WCI -14
MARSHFIELD     SUNNY      1 -12  54 W8        30.51F WCI -13
6HR MIN TEMP: -11; 6HR MAX TEMP:   1;

STEVENS POINT  SUNNY      3 -11  52 NW5       30.54F WCI  -6
WAUPACA        SUNNY     10  -9  42 NW9       30.55F WCI  -3
WAUTOMA        NOT AVBL
WISC RAPIDS    SUNNY      5 -11  47 N7        30.55F WCI  -7
6HR MIN TEMP:  -9; 6HR MAX TEMP:   5;

CAMP DOUGLAS   NOT AVBL
$$

WIZ011>013-019>022-031-037>040-048>050-131900-
NORTHEAST WISCONSIN

CITY           SKY/WX    TMP DP  RH WIND       PRES   REMARKS
ANTIGO         SUNNY      2  -8  62 NW7       30.45F WCI -10
SHAWANO        SUNNY      8  -8  47 W7        30.54S WCI  -3
OCONTO         SUNNY      8  -8  49 NW10      30.53F WCI  -7
STURGEON BAY   SUNNY      7  -6  56 NW14      30.51F WCI -10
6HR MIN TEMP:  -6; 6HR MAX TEMP:   7;

GREEN BAY      SUNNY      6  -7  54 NW13      30.53F WCI -10
6HR MIN TEMP:  -5; 6HR MAX TEMP:   7;

MANITOWOC      NOT AVBL
APPLETON       MOSUNNY    7 -11  43 W6        30.52F WCI  -3
CLINTONVILLE   SUNNY      9  -8  47 NW10      30.54F WCI  -6
OSHKOSH        SUNNY      5  -7  57 W8        30.55F WCI  -8
6HR MIN TEMP:  -6; 6HR MAX TEMP:   5;

$$

WIZ032>034-041-042-053>061-131900-
SOUTHWEST WISCONSIN

CITY           SKY/WX    TMP DP  RH WIND       PRES   REMARKS
LA CROSSE      SUNNY      6 -11  45 NW5       30.63F WCI  -3
6HR MIN TEMP:  -8; 6HR MAX TEMP:   6;

SPARTA         SUNNY      5 -11  47 W8        30.61F WCI  -8
VIROQUA        SUNNY      3 -12  48 CALM      30.55F
BOSCOBEL       SUNNY     10 -12  36 CALM      30.62F
6HR MIN TEMP: -11; 6HR MAX TEMP:  10; 6HR PCP: TRACE;

PRAIRIE DU CHI SUNNY      6 -13  41 W3        30.63F
PLATTEVILLE    SUNNY      5  -8  54 W5        30.59F WCI  -4
$$

WIZ056-057-062-063-064-067-068-131900-
SOUTH CENTRAL WISCONSIN

CITY           SKY/WX    TMP DP  RH WIND       PRES   REMARKS
REEDSBURG      SUNNY      3 -11  51 W6        30.59F WCI  -8
BARABOO/DELLS  SUNNY      4 -12  47 W8        30.57F WCI  -9
LONE ROCK      NOT AVBL
MINERAL POINT  SUNNY      5  -9  51 W7        30.57F WCI  -7
MADISON        SUNNY      5 -10  50 NW7       30.58F WCI  -7
6HR MIN TEMP:  -3; 6HR MAX TEMP:   5;

MIDDLETON      SUNNY      7  -9  46 W8        30.59F WCI  -5
WATERTOWN      SUNNY      6  -6  55 W6        30.58S WCI  -4
MONROE         SUNNY     10  -8  44 W6        30.57S WCI   1
JANESVILLE     SUNNY     10  -8  44 NW9       30.59F WCI  -2
$$

WIZ051-052-058>065-066-070>072-131900-
SOUTHEAST WISCONSIN

CITY           SKY/WX    TMP DP  RH WIND       PRES   REMARKS
MILWAUKEE      MOSUNNY   10  -9  42 NW13      30.56F WCI  -5
6HR MIN TEMP:   0; 6HR MAX TEMP:  10;

WAUKESHA       SUNNY      3  -9  55 NW14      30.56F WCI -15
MILWAUKEE/TIMM SUNNY      9  -9  43 NW9       30.57F WCI  -5
RACINE         SUNNY     10  -8  44 W14       30.58S WCI  -6
6HR MIN TEMP:   0; 6HR MAX TEMP:  10;

BURLINGTON     SUNNY      8  -8  48 NW10      30.58S WCI  -6
KENOSHA        SUNNY     10  -6  48 W13       30.57S WCI  -5
6HR MIN TEMP:   0; 6HR MAX TEMP:  10;

FOND DU LAC    SUNNY      6  -7  54 NW8       30.56F WCI  -7
6HR MIN TEMP:  -4; 6HR MAX TEMP:   6;

SHEBOYGAN      SUNNY      6  -7  54 NW10      30.54F WCI  -9
6HR MIN TEMP:  -3; 6HR MAX TEMP:   6;

WEST BEND      SUNNY      7  -8  51 NW5       30.55S WCI  -2
JUNEAU         SUNNY      2  -9  58 NW7       30.57F WCI -10
$$

LSZ147-162-131900-
LAKE SUPERIOR

STATION/POSITION TIME  TEMP    WIND        PRES    WAVE
                       AIR SEA DIR/SP/G            HT/PER
                 (UTC) (F)     (DEG/KT/KT) (MB)    (FT/S)
DEVILS ISLAND    1700    2     300/  8/ 11 1037.4F
SAXON HARBOR     1740    3                 1034.9F
$$

LMZ867-665-643>646-131900-
LAKE MICHIGAN

STATION/POSITION TIME  TEMP    WIND        PRES    WAVE
                       AIR SEA DIR/SP/G            HT/PER
                 (UTC) (F)     (DEG/KT/KT) (MB)    (FT/S)
CHAMBERS ISLAND  1700    9     300/ 12/ 18 1032.8R
SISTER BAY       1719   11     330/ 20/ 23   N/A
ALGOMA LAKESHORE 1711          320/ 12/ 18   N/A
KEWAUNEE LAKESHO 1700    4     310/ 15/ 20 1032.7S
SHEBOYGAN LAKESH 1700    4     300/ 15/ 17 1036.8S
PORT WASHINGTON  1700    7     320/  9/ 14 1035.9F
MILWAUKEE LAKESH 1710    8     320/ 11/ 14   N/A
KENOSHA   LAKESH 1700    6     330/ 12/ 16 1035.2F
$$

TC  - TEMPERATURE IN CELSIUS
VSB - VISIBILITY IN STATUTE MILES
WCI - WIND CHILL INDEX
HX  - HEAT INDEX




USA.gov is the U.S. government's official web portal to all federal, state and local government web resources and services.